Regional Weather Roundup
Issued by NWS

Home | Current Version | Previous Version | Text Only | Print | Product List | Glossary On
Versions: 1 2 3 4 5 6 7 8 9 10 11 12 13 14 15 16 17 18 19 20 21 22 23 24 25 26 27 28
000
ASUS45 KCYS 220110
RWRWY

WYOMING REGIONAL WEATHER ROUNDUP
NATIONAL WEATHER SERVICE CHEYENNE WY
700 PM MDT FRI JUL 21 2017

NOTE:  "FAIR" INDICATES FEW OR NO CLOUDS BELOW 12,000 FEET
WITH NO SIGNIFICANT WEATHER AND/OR OBSTRUCTIONS TO VISIBILITY.

WYZ001-220200-
YELLOWSTONE NATIONAL PARK

CITY           SKY/WX    TMP DP  RH WIND       PRES   REMARKS
LK YELLOWSTONE   N/A     72  24  16 NW3       30.31S
W YELLOWSTONE  NOT AVBL

$$
WYZ002>013-054>058-071-098>099-220200-
NORTHERN WYOMING

CITY           SKY/WX    TMP DP  RH WIND       PRES   REMARKS
JACKSON        SUNNY     79  27  14 CALM      30.20F
CODY           FAIR      81  41  24 N9        30.05S
GREYBULL       FAIR      92  27   9 CALM      29.93F
WORLAND        FAIR      90  39  16 N8        29.94F
SHERIDAN       FAIR      89  34  14 CALM      29.99F
BUFFALO        FAIR      84  36  18 N8        30.07S
GILLETTE       FAIR      88  34  14 N10       30.00F
HULETT         FAIR      84  32  15 NW8       30.02S
NEWCASTLE      FAIR      88  32  13 NW7       30.00S

$$
WYZ014>020-022>026-101>103-220200-
CENTRAL WYOMING

CITY           SKY/WX    TMP DP  RH WIND       PRES   REMARKS
BIG PINEY      FAIR      80  36  20 NW8       30.23F
PINEDALE       FAIR      79  30  17 NW12      30.25S
DUBOIS         FAIR      77  19  11 NW18G24   30.22F
LANDER         FAIR      88  31  13 NW16      30.05F
RIVERTON       FAIR      88  26  10 NW15G24   30.05S
CASPER         FAIR      88  34  14 NW9       30.05R
DOUGLAS        FAIR      84  50  30 S10       30.05R

$$
WYZ021-027>030-104>119-220200-
SOUTHERN WYOMING

CITY           SKY/WX    TMP DP  RH WIND       PRES   REMARKS
EVANSTON       FAIR      83  40  21 N13       30.22F
KEMMERER         N/A    N/A N/A N/A NW12      30.25S
FORT BRIDGER   FAIR      82  45  26 S3        30.24S
ROCK SPRINGS   FAIR      81  43  26 SW5       30.20R
RAWLINS        FAIR      74  49  41 SE18G26   30.24R
SARATOGA       FAIR      59  54  82 S15       30.31F
LARAMIE        PTSUNNY   63  46  54 W24G33    30.34R
CHEYENNE       PTSUNNY   75  46  35 W9        30.18S
TORRINGTON     FAIR      86  50  28 NE8       29.98R
PINE BLUFFS    FAIR      81  45  28 W10       30.09S

$$




USA.gov is the U.S. government's official web portal to all federal, state and local government web resources and services.